Location: Observatoire de Paris
(48.8363°N, 2.3365°E)
Time: 05:44:54
(UTC+01:00)

METEOR M2 - Pass Details

Date: 22 September 2021
Orbit: 819 x 826 km, 98.5° (Epoch: 19 October)

Event Time Altitude Azimuth Distance (km) Brightness Sun altitude
Rises 19:31:11 0° 169° (S) 3,337 ? -7.9°
Reaches altitude 10° 19:33:31 10° 172° (S) 2,409 ? -8.2°
Maximum altitude 19:38:51 73° 257° (WSW) 861 ? -9.1°
Drops below altitude 10° 19:44:14 10° 342° (NNW) 2,428 ? -10.0°
Sets 19:46:36 0° 345° (NNW) 3,366 ? -10.4°
